Time,TemperatureF,DewpointF,PressureIn,WindDirection,WindDirectionDegrees,WindSpeedMPH,WindSpeedGustMPH,Humidity,HourlyPrecipIn,Conditions,Clouds,dailyrainin,SoftwareType,DateUTC
2016-02-14 00:03:00,57.6,47.0,30.17,SE,146,1.0,10.0,68,0.00,,,0.00,weatherlink.com 1.10,2016-02-14 06:03:00,
2016-02-14 00:18:00,57.5,47.0,30.16,SE,129,1.0,9.0,68,0.00,,,0.00,weatherlink.com 1.10,2016-02-14 06:18:00,
2016-02-14 00:33:00,57.3,47.0,30.16,SE,137,3.0,9.0,69,0.00,,,0.00,weatherlink.com 1.10,2016-02-14 06:33:00,
2016-02-14 00:48:00,57.1,47.0,30.16,SSE,165,4.0,6.0,70,0.00,,,0.00,weatherlink.com 1.10,2016-02-14 06:48:00,
2016-02-14 01:03:00,57.0,48.0,30.16,SE,132,2.0,7.0,71,0.00,,,0.00,weatherlink.com 1.10,2016-02-14 07:03:00,
2016-02-14 01:18:00,56.9,48.0,30.15,SE,146,3.0,8.0,71,0.00,,,0.00,weatherlink.com 1.10,2016-02-14 07:18:00,
2016-02-14 01:33:00,56.8,47.0,30.14,SE,124,3.0,9.0,71,0.00,,,0.00,weatherlink.com 1.10,2016-02-14 07:33:00,
2016-02-14 01:48:00,56.6,47.0,30.14,SSE,147,3.0,9.0,71,0.00,,,0.00,weatherlink.com 1.10,2016-02-14 07:48:00,
2016-02-14 02:03:00,56.5,48.0,30.13,SSE,168,1.0,8.0,72,0.00,,,0.00,weatherlink.com 1.10,2016-02-14 08:03:00,
2016-02-14 02:18:00,56.3,47.0,30.12,SE,142,1.0,6.0,72,0.00,,,0.00,weatherlink.com 1.10,2016-02-14 08:18:00,
2016-02-14 02:33:00,56.2,48.0,30.11,SE,128,0.0,6.0,73,0.00,,,0.00,weatherlink.com 1.10,2016-02-14 08:33:00,
2016-02-14 03:03:00,55.9,48.0,30.10,SSE,151,1.0,6.0,74,0.00,,,0.00,weatherlink.com 1.10,2016-02-14 09:03:00,
2016-02-14 03:18:00,55.8,48.0,30.10,South,169,0.0,2.0,75,0.00,,,0.00,weatherlink.com 1.10,2016-02-14 09:18:00,
2016-02-14 03:34:00,55.7,48.0,30.10,SE,130,1.0,5.0,76,0.00,,,0.00,weatherlink.com 1.10,2016-02-14 09:34:00,
2016-02-14 03:49:00,55.5,48.0,30.09,SE,125,3.0,3.0,77,0.00,,,0.00,weatherlink.com 1.10,2016-02-14 09:49:00,
2016-02-14 04:04:00,55.5,49.0,30.08,SSE,154,1.0,5.0,78,0.00,,,0.00,weatherlink.com 1.10,2016-02-14 10:04:00,
2016-02-14 04:31:00,55.4,50.0,30.07,SSE,148,4.0,8.0,81,0.00,,,0.00,weatherlink.com 1.10,2016-02-14 10:31:00,
2016-02-14 04:49:00,55.5,50.0,30.07,SSE,159,2.0,11.0,83,0.00,,,0.00,weatherlink.com 1.10,2016-02-14 10:49:00,
2016-02-14 05:04:00,55.6,51.0,30.06,SE,146,2.0,7.0,85,0.00,,,0.00,weatherlink.com 1.10,2016-02-14 11:04:00,
2016-02-14 05:19:00,55.7,52.0,30.06,SE,143,3.0,8.0,86,0.00,,,0.00,weatherlink.com 1.10,2016-02-14 11:19:00,